| time (UTC) | temp C | wind direction | speed KPH | gust KPH | rain 1hr cm | rain 24hr cm | rain mn cm | humidity % | barometer mb |
| 20260510190028 | 14 | 43 | 4.8 | 12.9 | 0.00 | 0.48 | 0.00 | 40 | 1012.1 |
| 20260510184611 | 14 | 240 | 4.8 | 9.7 | 0.00 | 0.48 | 0.00 | 41 | 1012.0 |
| 20260510183034 | 15 | 9 | 1.6 | 14.5 | 0.00 | 0.48 | 0.00 | 45 | 1011.8 |
| 20260510181607 | 15 | 248 | 4.8 | 12.9 | 0.00 | 0.48 | 0.00 | 38 | 1011.6 |
| 20260510180138 | 15 | 284 | 6.4 | 16.1 | 0.00 | 0.48 | 0.00 | 42 | 1011.4 |
| 20260510174654 | 13 | 277 | 6.4 | 17.7 | 0.00 | 0.48 | 0.00 | 35 | 1011.4 |
| 20260510173019 | 14 | 90 | 6.4 | 11.3 | 0.00 | 0.48 | 0.00 | 40 | 1011.3 |
| 20260510171606 | 14 | 33 | 4.8 | 11.3 | 0.00 | 0.48 | 0.00 | 39 | 1011.4 |
| 20260510170003 | 14 | 345 | 3.2 | 11.3 | 0.00 | 0.48 | 0.00 | 40 | 1011.6 |
| 20260510164558 | 13 | 281 | 3.2 | 12.9 | 0.00 | 0.48 | 0.00 | 42 | 1011.5 |
| 20260510163019 | 14 | 344 | 1.6 | 9.7 | 0.00 | 0.48 | 0.00 | 47 | 1011.3 |
| 20260510161559 | 13 | 17 | 3.2 | 11.3 | 0.00 | 0.48 | 0.00 | 47 | 1011.2 |
| 20260510160009 | 13 | 298 | 4.8 | 17.7 | 0.00 | 0.48 | 0.00 | 46 | 1011.1 |
| 20260510154554 | 12 | 5 | 1.6 | 14.5 | 0.00 | 0.48 | 0.00 | 49 | 1011.0 |
| 20260510153137 | 12 | 298 | 3.2 | 12.9 | 0.00 | 0.48 | 0.00 | 49 | 1010.7 |
| 20260510151505 | 12 | 349 | 6.4 | 14.5 | 0.00 | 0.48 | 0.00 | 50 | 1010.8 |
| 20260510150058 | 12 | 229 | 1.6 | 22.5 | 0.00 | 0.48 | 0.00 | 57 | 1010.6 |
| 20260510144521 | 12 | 25 | 3.2 | 16.1 | 0.00 | 0.48 | 0.00 | 52 | 1010.4 |
| 20260510143053 | 11 | 355 | 4.8 | 12.9 | 0.00 | 0.48 | 0.00 | 53 | 1010.3 |
| 20260510141645 | 11 | 11 | 8.0 | 14.5 | 0.00 | 0.48 | 0.00 | 53 | 1010.3 |
| 20260510140009 | 11 | 17 | 8.0 | 14.5 | 0.00 | 0.48 | 0.00 | 51 | 1010.4 |
| 20260510134605 | 10 | 36 | 8.0 | 16.1 | 0.00 | 0.48 | 0.00 | 50 | 1010.6 |
| 20260510133023 | 10 | 48 | 4.8 | 17.7 | 0.00 | 0.48 | 0.00 | 56 | 1010.2 |
| 20260510131549 | 10 | 34 | 11.3 | 17.7 | 0.00 | 0.48 | 0.00 | 56 | 1009.9 |
| 20260510130137 | 10 | 355 | 4.8 | 17.7 | 0.00 | 0.48 | 0.00 | 59 | 1009.6 |
| 20260510124513 | 10 | 24 | 6.4 | 12.9 | 0.00 | 0.48 | 0.00 | 61 | 1009.3 |
| 20260510123108 | 8 | 44 | 4.8 | 11.3 | 0.00 | 0.48 | 0.00 | 65 | 1009.0 |
| 20260510121533 | 9 | 17 | 8.0 | 16.1 | 0.00 | 0.48 | 0.00 | 64 | 1008.9 |
| 20260510120100 | 8 | 345 | 1.6 | 12.9 | 0.00 | 0.48 | 0.00 | 72 | 1008.8 |
| 20260510114523 | 8 | 336 | 1.6 | 11.3 | 0.00 | 0.48 | 0.00 | 75 | 1008.4 |
| 20260510113051 | 8 | 24 | 6.4 | 12.9 | 0.00 | 0.48 | 0.00 | 75 | 1008.1 |
| 20260510111637 | 8 | 57 | 3.2 | 11.3 | 0.00 | 0.48 | 0.00 | 76 | 1007.7 |
| 20260510110050 | 8 | 9 | 0.0 | 6.4 | 0.00 | 0.48 | 0.00 | 79 | 1007.5 |
| 20260510104635 | 8 | 17 | 1.6 | 8.0 | 0.00 | 0.48 | 0.00 | 78 | 1007.1 |
| 20260510103148 | 8 | 17 | 4.8 | 12.9 | 0.00 | 0.48 | 0.00 | 80 | 1006.7 |
| 20260510101549 | 8 | 19 | 0.0 | 6.4 | 0.00 | 0.48 | 0.00 | 82 | 1006.2 |
| 20260510100110 | 8 | 30 | 0.0 | 4.8 | 0.00 | 0.48 | 0.00 | 81 | 1006.0 |
| 20260510094533 | 8 | 53 | 4.8 | 9.7 | 0.00 | 0.48 | 0.00 | 82 | 1005.8 |
| 20260510093056 | 8 | 294 | 0.0 | 0.0 | 0.00 | 0.48 | 0.00 | 87 | 1005.9 |
| 20260510091530 | 8 | 294 | 0.0 | 0.0 | 0.00 | 0.48 | 0.00 | 88 | 1005.7 |
| 20260510090105 | 7 | 294 | 0.0 | 0.0 | 0.00 | 0.48 | 0.00 | 86 | 1005.3 |
| 20260510084526 | 7 | 294 | 0.0 | 0.0 | 0.00 | 0.48 | 0.00 | 85 | 1005.2 |
| 20260510083117 | 7 | 294 | 0.0 | 0.0 | 0.00 | 0.48 | 0.00 | 86 | 1004.9 |
| 20260510081546 | 8 | 294 | 0.0 | 0.0 | 0.00 | 0.48 | 0.00 | 84 | 1004.8 |
| 20260510080109 | 8 | 294 | 0.0 | 0.0 | 0.00 | 0.48 | 0.00 | 83 | 1004.6 |
| 20260510074503 | 8 | 294 | 0.0 | 1.6 | 0.00 | 0.48 | 0.00 | 81 | 1004.5 |
| 20260510073039 | 9 | 295 | 0.0 | 3.2 | 0.00 | 0.48 | 0.00 | 71 | 1004.0 |
| 20260510071600 | 9 | 13 | 1.6 | 4.8 | 0.00 | 0.48 | 0.00 | 71 | 1003.8 |
| 20260510070144 | 10 | 32 | 3.2 | 9.7 | 0.00 | 0.48 | 0.00 | 70 | 1003.7 |
| 20260510064639 | 10 | 9 | 3.2 | 6.4 | 0.00 | 0.48 | 0.00 | 71 | 1003.6 |
| 20260510063017 | 10 | 355 | 4.8 | 12.9 | 0.00 | 0.48 | 0.00 | 70 | 1003.4 |
| 20260510061600 | 10 | 10 | 4.8 | 19.3 | 0.00 | 0.48 | 0.00 | 71 | 1003.4 |
| 20260510060013 | 11 | 57 | 8.0 | 20.9 | 0.00 | 0.48 | 0.00 | 72 | 1003.0 |
| 20260510054558 | 11 | 26 | 9.7 | 17.7 | 0.00 | 0.48 | 0.00 | 86 | 1002.8 |
| 20260510053137 | 12 | 297 | 0.0 | 4.8 | 0.00 | 0.48 | 0.00 | 89 | 1002.2 |
| 20260510051649 | 12 | 232 | 0.0 | 3.2 | 0.00 | 0.48 | 0.00 | 91 | 1001.8 |
| 20260510050018 | 11 | 330 | 0.0 | 3.2 | 0.00 | 0.48 | 0.00 | 91 | 1001.8 |
| 20260510044607 | 12 | 289 | 0.0 | 8.0 | 0.00 | 0.48 | 0.00 | 89 | 1001.5 |
| 20260510043146 | 12 | 170 | 1.6 | 11.3 | 0.00 | 0.48 | 0.00 | 89 | 1000.9 |
| 20260510041627 | 12 | 187 | 0.0 | 3.2 | 0.00 | 0.48 | 0.00 | 87 | 1000.6 |
| 20260510040004 | 12 | 193 | 1.6 | 8.0 | 0.00 | 0.51 | 0.48 | 87 | 1000.6 |
| 20260510034610 | 12 | 174 | 0.0 | 3.2 | 0.00 | 0.51 | 0.48 | 89 | 1000.5 |
| 20260510033002 | 12 | 148 | 1.6 | 3.2 | 0.05 | 0.51 | 0.48 | 90 | 1000.5 |
| 20260510031555 | 12 | 166 | 0.0 | 3.2 | 0.05 | 0.51 | 0.48 | 90 | 1000.4 |
| 20260510030115 | 13 | 84 | 0.0 | 3.2 | 0.05 | 0.51 | 0.48 | 88 | 1000.2 |
| 20260510024643 | 13 | 305 | 0.0 | 17.7 | 0.10 | 0.51 | 0.48 | 85 | 1000.8 |
| 20260510023144 | 13 | 192 | 4.8 | 11.3 | 0.13 | 0.46 | 0.43 | 84 | 1000.6 |
| 20260510021644 | 13 | 224 | 4.8 | 11.3 | 0.13 | 0.46 | 0.43 | 83 | 1000.4 |
| 20260510020146 | 14 | 180 | 3.2 | 16.1 | 0.13 | 0.46 | 0.43 | 79 | 1000.2 |
| 20260510014517 | 13 | 219 | 8.0 | 17.7 | 0.03 | 0.36 | 0.33 | 83 | 1000.5 |
| 20260510013103 | 13 | 171 | 0.0 | 1.6 | 0.00 | 0.33 | 0.30 | 85 | 999.6 |
| 20260510011639 | 12 | 195 | 0.0 | 3.2 | 0.00 | 0.33 | 0.30 | 87 | 999.6 |
| 20260510010145 | 13 | 173 | 0.0 | 3.2 | 0.00 | 0.33 | 0.30 | 85 | 999.4 |
| 20260510004525 | 13 | 227 | 1.6 | 9.7 | 0.00 | 0.38 | 0.30 | 82 | 999.3 |
| 20260510003101 | 13 | 214 | 3.2 | 8.0 | 0.00 | 0.38 | 0.30 | 82 | 999.4 |
| 20260510001529 | 13 | 229 | 4.8 | 9.7 | 0.03 | 0.38 | 0.30 | 83 | 999.3 |
| 20260510000106 | 13 | 242 | 1.6 | 9.7 | 0.10 | 0.38 | 0.30 | 83 | 999.4 |
| 20260509234634 | 13 | 184 | 6.4 | 16.1 | 0.13 | 0.46 | 0.30 | 84 | 999.4 |
| 20260509233149 | 13 | 261 | 8.0 | 24.1 | 0.30 | 0.46 | 0.30 | 83 | 999.2 |
| 20260509231535 | 13 | 214 | 9.7 | 27.4 | 0.28 | 0.43 | 0.28 | 83 | 999.1 |
| 20260509230115 | 13 | 268 | 3.2 | 22.5 | 0.20 | 0.36 | 0.20 | 83 | 999.2 |
| 20260509224646 | 15 | 245 | 8.0 | 46.7 | 0.18 | 0.46 | 0.18 | 78 | 999.5 |
| 20260509223046 | 20 | 202 | 11.3 | 32.2 | 0.00 | 0.28 | 0.00 | 57 | 997.8 |
| 20260509221600 | 20 | 211 | 19.3 | 40.2 | 0.00 | 0.28 | 0.00 | 56 | 996.9 |
| 20260509220140 | 20 | 201 | 19.3 | 38.6 | 0.00 | 0.28 | 0.00 | 56 | 996.9 |
| 20260509214545 | 20 | 187 | 12.9 | 37.0 | 0.00 | 0.38 | 0.00 | 57 | 996.8 |
| 20260509213118 | 21 | 188 | 17.7 | 38.6 | 0.00 | 0.38 | 0.00 | 56 | 996.8 |
| 20260509211515 | 21 | 180 | 24.1 | 38.6 | 0.00 | 0.38 | 0.00 | 55 | 996.8 |
| 20260509210106 | 21 | 190 | 19.3 | 41.8 | 0.00 | 0.38 | 0.00 | 57 | 996.8 |
| 20260509204638 | 21 | 186 | 16.1 | 38.6 | 0.00 | 0.43 | 0.00 | 57 | 997.3 |
| 20260509203012 | 21 | 163 | 14.5 | 33.8 | 0.00 | 0.43 | 0.00 | 57 | 997.5 |
| 20260509201603 | 21 | 200 | 19.3 | 38.6 | 0.00 | 0.43 | 0.00 | 57 | 997.7 |
| 20260509200022 | 21 | 209 | 17.7 | 33.8 | 0.00 | 0.43 | 0.00 | 61 | 998.0 |
| 20260509194600 | 21 | 171 | 19.3 | 35.4 | 0.00 | 0.43 | 0.00 | 57 | 998.2 |
| 20260509193144 | 20 | 190 | 16.1 | 35.4 | 0.00 | 0.43 | 0.00 | 59 | 998.3 |
| 20260509191512 | 20 | 179 | 19.3 | 29.0 | 0.00 | 0.43 | 0.00 | 60 | 998.6 |